Location: Unspecified
(0.0000°N, 0.0000°E)
Time: 09:17:40
(UTC+00:00)

Envisat - Pass Details

Date: 25 January 2021
Orbit: 764 x 766 km, 98.1° (Epoch: 25 February)

Event Time Altitude Azimuth Distance (km) Brightness Sun altitude
Rises 04:46:58 0° 29° (NNE) 3,214 6.3 -20.1°
Reaches altitude 10° 04:49:27 10° 38° (NE) 2,291 5.7 -19.6°
Maximum altitude 04:53:59 34° 102° (ESE) 1,246 4.8 -18.5°
Drops below altitude 10° 04:58:31 10° 166° (SSE) 2,299 5.9 -17.4°
Sets 05:01:00 0° 175° (S) 3,227 6.6 -16.8°
